CZ-4B R/B

Last updated on Sat Jun 21 2025 00:02:13 GMT+0000 (Coordinated Universal Time)

1 29507U 06046C 25171.50902052 .00003627 00000+0 20098-3 0 9997 2 29507 97.5952 212.1153 0037280 93.9224 266.6270 15.13853596 20340
UTC large
Height (km)
Speed (km/s)
/
Latitude / Longitude
Inclination (degrees)
Orbital Period (minutes)
Azimuth
Elevation
Range (km)
Doppler Factor

Next 0 passes for location: London (51.5072 / 0.1276)

Sorry there are no passes over London.